DEDAF EHEH-EHRD

Flight info

Callsign DEDAF
Flight time 0h 20m
Altitude 6000
Route INKET RD241
Aircraft BT36/L-BDFGLORY/S

Departure

Time 2026-05-03 20:44
Airport Eindhoven Airport (EHEH)

Arrival

Time 2026-05-03 21:04
Airport Rotterdam The Hague Airport (EHRD)
Time Latitude Longitude Altitude Speed Heading
2026-05-03 20:38 51.45395 5.37434 73 ft 0 kts 119°
2026-05-03 20:41 51.45384 5.37438 70 ft 7 kts 210°
2026-05-03 20:41 51.45307 5.37387 72 ft 15 kts 165°
2026-05-03 20:42 51.45311 5.37501 72 ft 18 kts 38°
2026-05-03 20:42 51.45413 5.37618 69 ft 9 kts 41°
2026-05-03 20:42 51.45428 5.37769 73 ft 18 kts 120°
2026-05-03 20:42 51.45397 5.37838 75 ft 10 kts 139°
2026-05-03 20:43 51.45357 5.37837 75 ft 0 kts 217°
2026-05-03 20:43 51.45190 5.37655 63 ft 71 kts 214°
2026-05-03 20:44 51.44632 5.36980 236 ft 113 kts 217°
2026-05-03 20:44 51.43982 5.36125 569 ft 126 kts 213°
2026-05-03 20:44 51.43184 5.35571 1027 ft 123 kts 204°
2026-05-03 20:44 51.42464 5.34917 1558 ft 116 kts 215°
2026-05-03 20:45 51.41803 5.34189 2061 ft 115 kts 217°
2026-05-03 20:45 51.41435 5.33131 2547 ft 120 kts 275°
2026-05-03 20:45 51.41961 5.32034 3050 ft 134 kts 320°
2026-05-03 20:45 51.42781 5.31289 3543 ft 136 kts 325°
2026-05-03 20:46 51.43563 5.30496 4063 ft 129 kts 306°
2026-05-03 20:46 51.44348 5.29783 4597 ft 137 kts 345°
2026-05-03 20:46 51.45205 5.29315 5098 ft 128 kts 312°
2026-05-03 20:46 51.46081 5.28741 5593 ft 137 kts 338°
2026-05-03 20:47 51.47152 5.28390 5828 ft 170 kts 349°
2026-05-03 20:47 51.48302 5.28444 6489 ft 166 kts 355°
2026-05-03 20:47 51.49437 5.27744 6412 ft 188 kts 312°
2026-05-03 20:47 51.50210 5.26007 6325 ft 198 kts 298°
2026-05-03 20:48 51.51109 5.24246 6150 ft 212 kts 309°
2026-05-03 20:48 51.52204 5.22581 5898 ft 219 kts 313°
2026-05-03 20:48 51.53305 5.20956 5895 ft 212 kts 312°
2026-05-03 20:48 51.54347 5.19356 5894 ft 209 kts 311°
2026-05-03 20:49 51.55390 5.17739 5892 ft 208 kts 311°
2026-05-03 20:49 51.56428 5.16134 5892 ft 207 kts 311°
2026-05-03 20:49 51.57465 5.14534 5892 ft 207 kts 311°
2026-05-03 20:49 51.58501 5.12934 5891 ft 207 kts 311°
2026-05-03 20:50 51.59536 5.11333 5888 ft 206 kts 311°
2026-05-03 20:50 51.60572 5.09732 5888 ft 206 kts 311°
2026-05-03 20:50 51.61605 5.08133 5892 ft 206 kts 311°
2026-05-03 20:50 51.62642 5.06525 5889 ft 207 kts 311°
2026-05-03 20:51 51.63678 5.04921 5892 ft 207 kts 311°
2026-05-03 20:51 51.64713 5.03315 5888 ft 207 kts 311°
2026-05-03 20:51 51.65748 5.01708 5888 ft 207 kts 311°
2026-05-03 20:51 51.66782 5.00102 5888 ft 207 kts 311°
2026-05-03 20:52 51.67816 4.98496 5888 ft 207 kts 311°
2026-05-03 20:52 51.68851 4.96886 5892 ft 207 kts 311°
2026-05-03 20:52 51.69888 4.95273 5888 ft 207 kts 311°
2026-05-03 20:52 51.70921 4.93664 5893 ft 206 kts 311°
2026-05-03 20:53 51.71940 4.92077 5892 ft 206 kts 311°
2026-05-03 20:53 51.72970 4.90471 5892 ft 206 kts 311°
2026-05-03 20:53 51.73999 4.88864 5891 ft 206 kts 311°
2026-05-03 20:53 51.75044 4.87235 5842 ft 208 kts 311°
2026-05-03 20:54 51.76100 4.85580 5604 ft 215 kts 311°
2026-05-03 20:54 51.78275 4.82180 5107 ft 220 kts 313°
2026-05-03 20:54 51.79361 4.80484 4860 ft 221 kts 313°
2026-05-03 20:55 51.80460 4.78760 4605 ft 219 kts 313°
2026-05-03 20:55 51.81653 4.77227 4343 ft 221 kts 327°
2026-05-03 20:55 51.83032 4.76111 4087 ft 221 kts 331°
2026-05-03 20:55 51.84398 4.74993 3881 ft 218 kts 328°
2026-05-03 20:56 51.85696 4.73819 3876 ft 210 kts 327°
2026-05-03 20:56 51.86956 4.72664 3873 ft 207 kts 327°
2026-05-03 20:56 51.88209 4.71527 3870 ft 206 kts 327°
2026-05-03 20:56 51.89459 4.70396 3858 ft 206 kts 327°
2026-05-03 20:57 51.90735 4.69240 3606 ft 214 kts 327°
2026-05-03 20:57 51.92052 4.68045 3270 ft 220 kts 327°
2026-05-03 20:57 51.93326 4.66912 2889 ft 196 kts 328°
2026-05-03 20:57 51.94418 4.65943 2496 ft 164 kts 327°
2026-05-03 20:58 51.95358 4.65081 2097 ft 146 kts 326°
2026-05-03 20:58 51.96205 4.64302 1714 ft 138 kts 326°
2026-05-03 20:58 51.96972 4.63607 1671 ft 115 kts 325°
2026-05-03 20:58 51.97613 4.63025 1667 ft 98 kts 324°
2026-05-03 20:59 51.98203 4.62481 1676 ft 98 kts 324°
2026-05-03 20:59 51.98817 4.61915 1679 ft 106 kts 324°
2026-05-03 20:59 51.99473 4.61320 1710 ft 109 kts 325°
2026-05-03 20:59 52.00126 4.60725 1810 ft 107 kts 325°
2026-05-03 21:00 52.00783 4.60127 1881 ft 111 kts 324°
2026-05-03 21:00 52.01149 4.59564 1885 ft 110 kts 294°
2026-05-03 21:00 52.01150 4.57999 1854 ft 111 kts 237°
2026-05-03 21:00 52.00748 4.56851 1704 ft 121 kts 239°
2026-05-03 21:01 52.00303 4.55656 1541 ft 124 kts 238°
2026-05-03 21:01 51.99882 4.54565 1378 ft 104 kts 237°
2026-05-03 21:01 51.99519 4.53631 1237 ft 96 kts 236°
2026-05-03 21:01 51.99158 4.52734 1110 ft 94 kts 236°
2026-05-03 21:02 51.98803 4.51837 983 ft 95 kts 236°
2026-05-03 21:02 51.98435 4.50920 847 ft 99 kts 236°
2026-05-03 21:02 51.98060 4.49969 712 ft 100 kts 236°
2026-05-03 21:02 51.97678 4.49019 580 ft 101 kts 234°
2026-05-03 21:03 51.97299 4.48059 433 ft 101 kts 236°
2026-05-03 21:03 51.96914 4.47106 304 ft 101 kts 235°
2026-05-03 21:03 51.96542 4.46138 166 ft 101 kts 233°
2026-05-03 21:03 51.96178 4.45251 43 ft 86 kts 234°
2026-05-03 21:04 51.95883 4.44508 -7 ft 71 kts 234°
2026-05-03 21:04 51.95639 4.43902 -5 ft 50 kts 239°
2026-05-03 21:04 51.95465 4.43587 -6 ft 28 kts 216°
2026-05-03 21:04 51.95334 4.43442 -5 ft 19 kts 214°
2026-05-03 21:05 51.95315 4.43422 -5 ft 0 kts 206°
2026-05-03 21:05 51.95281 4.43410 -5 ft 15 kts 180°
2026-05-03 21:05 51.95171 4.43512 -5 ft 22 kts 148°
2026-05-03 21:05 51.95033 4.43662 -5 ft 17 kts 141°
2026-05-03 21:06 51.95020 4.43779 -5 ft 13 kts 56°
2026-05-03 21:06 51.95060 4.43804 -5 ft 7 kts 328°
2026-05-03 21:06 51.95062 4.43801 -5 ft 0 kts 327°